This is the latest recevied weather packets stored in our database for station/object N9XRG. If no packets are shown the sender has not sent any weather packets the latest 10 day(s).
| Time | Temp. | Humidity | Pressure | Rain* | Wind** | Luminosity | Snow |
|---|---|---|---|---|---|---|---|
| 1778174549 | 15° C | 42% | 1014.3 hPa | 0 mm | - | 953 W/m² | - |
| 1778174248 | 15° C | 41% | 1014.5 hPa | 0 mm | - | 956 W/m² | - |
| 1778173946 | 14.44° C | 40% | 1014.4 hPa | 0 mm | - | 957 W/m² | - |
| 1778173643 | 15° C | 39% | 1014.8 hPa | 0 mm | - | 949 W/m² | - |
| 1778173340 | 15° C | 40% | 1014.7 hPa | 0 mm | - | 945 W/m² | - |
| 1778173035 | 15° C | 44% | 1014.6 hPa | 0 mm | - | 937 W/m² | - |
| 1778172732 | 15° C | 43% | 1014.8 hPa | 0 mm | - | 950 W/m² | - |
| 1778172428 | 14.44° C | 43% | 1014.7 hPa | 0 mm | - | 917 W/m² | - |
| 1778172126 | 14.44° C | 42% | 1014.7 hPa | 0 mm | - | 911 W/m² | - |
| 1778171822 | 14.44° C | 42% | 1014.8 hPa | 0 mm | - | 913 W/m² | - |
| 1778171520 | 14.44° C | 42% | 1014.8 hPa | 0 mm | - | 905 W/m² | - |
| 1778171216 | 14.44° C | 40% | 1014.9 hPa | 0 mm | - | 903 W/m² | - |
| 1778170912 | 14.44° C | 42% | 1015 hPa | 0 mm | - | 897 W/m² | - |
| 1778170609 | 13.89° C | 42% | 1014.9 hPa | 0 mm | - | 893 W/m² | - |
| 1778170305 | 13.89° C | 44% | 1015.1 hPa | 0 mm | - | 880 W/m² | - |
| 1778170002 | 14.44° C | 42% | 1015.1 hPa | 0 mm | - | 877 W/m² | - |
| 1778169698 | 14.44° C | 42% | 1015.1 hPa | 0 mm | - | 871 W/m² | - |
| 1778169394 | 14.44° C | 42% | 1015 hPa | 0 mm | - | 864 W/m² | - |
| 1778169090 | 13.89° C | 43% | 1014.9 hPa | 0 mm | - | 855 W/m² | - |
| 1778168787 | 13.89° C | 43% | 1015.1 hPa | 0 mm | - | 848 W/m² | - |
| 1778168485 | 13.33° C | 42% | 1014.8 hPa | 0 mm | - | 842 W/m² | - |
| 1778168181 | 13.89° C | 42% | 1015.1 hPa | 0 mm | - | 787 W/m² | - |
| 1778167878 | 13.33° C | 45% | 1014.9 hPa | 0 mm | - | 817 W/m² | - |
| 1778167574 | 13.33° C | 46% | 1014.9 hPa | 0 mm | - | 808 W/m² | - |
| 1778167270 | 13.33° C | 45% | 1014.9 hPa | 0 mm | - | 794 W/m² | - |
* Rain latest hour (hover to see other rain measurements)
** Current wind speed in m/s (hover to see current wind gust speed)